Wind_Speed
7 7 7 6 4 4 1 2 5 5 7 8 10 12 13 12 12 11 10 11 11 10 9 9 9 9 9 8 9 9 10 10 11 11 11 11 11 11 11 10 10 10 10 10 9 10 10 10 10
7 7 7 6 4 3 2 3 5 7 8 9 11 12 12 12 12 12 11 11 11 11 11 10 10 10 9 9 9 9 10 11 11 11 12 12 12 12 11 11 11 11 10 11 11 11 11 11 11
6 6 6 6 3 2 2 3 5 9 10 11 13 13 13 13 13 12 13 13 13 12 12 10 10 10 9 9 9 10 10 11 11 11 12 13 12 12 12 12 12 11 11 11 11 11 11 12 12
5 6 6 5 3 1 2 4 6 10 12 13 15 15 14 13 13 13 13 13 12 12 12 11 10 10 10 10 11 11 11 11 12 12 12 13 12 12 12 11 12 12 12 12 12 12 12 12 12
4 4 4 4 2 2 2 4 7 10 13 14 14 15 14 14 14 14 13 12 13 13 12 12 11 11 11 11 12 12 12 12 12 12 12 13 12 13 12 12 12 13 13 13 13 13 13 13 13
4 4 3 3 2 2 4 5 8 10 12 14 15 14 15 14 15 14 14 14 14 13 12 11 12 12 12 13 13 14 13 13 13 13 14 14 14 14 13 13 13 13 14 14 14 14 14 14 14
5 5 3 3 2 4 5 8 10 12 14 15 15 15 15 16 16 15 14 14 13 13 12 11 12 13 13 13 14 14 14 15 15 14 15 16 16 15 14 14 14 14 14 14 14 15 15 15 15
7 5 3 2 3 5 7 10 12 13 15 16 17 15 16 17 16 15 14 14 13 13 12 11 12 13 13 14 15 15 14 15 15 15 16 16 17 16 15 15 15 15 15 16 16 16 16 16 16
7 6 4 3 4 7 9 10 11 13 15 16 17 16 16 17 16 15 15 14 14 13 12 12 13 14 14 14 15 15 15 15 15 15 16 16 15 15 15 15 16 16 17 17 17 18 17 17 17
8 5 4 3 5 8 10 11 12 13 15 16 16 15 16 17 16 15 15 14 13 13 12 13 14 15 15 16 16 16 16 16 16 16 16 15 15 15 16 16 16 17 17 17 18 18 18 18 18
9 6 5 5 6 9 10 12 14 14 15 15 16 16 16 17 17 16 14 14 14 14 14 14 15 16 16 16 16 17 17 15 15 15 15 15 15 15 16 16 16 16 17 17 18 18 19 19 19
10 7 7 7 8 9 10 13 14 15 15 16 16 16 16 17 16 15 14 14 15 15 16 15 17 17 17 17 17 18 17 16 15 16 16 16 16 16 16 16 16 15 16 16 16 18 18 19 20
12 10 9 10 11 10 10 12 14 15 16 17 17 16 16 15 15 15 14 14 15 16 16 16 17 17 17 18 18 17 17 16 16 16 16 16 16 16 16 16 16 16 16 17 17 17 18 18 19
11 11 10 9 10 10 11 12 15 16 17 17 17 15 15 15 15 15 15 16 16 17 17 17 16 17 18 19 18 17 16 16 15 15 16 16 15 15 16 16 17 17 17 17 17 18 18 18 19
10 9 8 8 10 11 13 14 16 17 17 18 17 17 18 18 17 17 16 16 17 17 17 17 18 18 18 18 18 18 17 17 16 16 16 16 15 15 15 15 16 16 17 17 18 18 18 19 19
10 10 9 9 11 12 15 17 18 19 19 18 18 18 19 18 17 17 17 17 17 17 18 19 19 19 19 19 18 18 18 18 17 16 17 17 16 16 16 16 16 17 17 17 18 18 19 19 20
10 10 10 11 12 14 15 18 19 20 20 18 19 19 20 19 17 17 17 17 18 19 19 20 20 20 20 19 18 18 18 18 18 17 18 18 18 18 18 18 18 18 18 18 18 18 19 19 20
11 11 13 12 12 14 15 17 18 18 20 19 19 19 19 19 17 17 18 18 20 21 21 20 21 21 21 20 20 20 19 19 18 18 19 19 19 19 19 20 20 19 19 19 19 19 19 19 20
13 14 15 14 14 15 16 17 17 18 18 20 21 20 19 19 19 18 18 19 21 22 21 22 22 22 22 21 21 21 20 20 20 21 21 21 21 21 21 21 21 21 20 20 19 19 20 20 20
16 16 16 15 16 16 17 17 17 18 18 19 20 21 20 20 21 20 19 20 21 22 22 22 23 23 22 21 22 21 22 22 22 22 22 22 23 23 23 22 22 22 22 21 21 21 20 20 20
16 16 15 15 15 16 18 17 17 17 18 19 20 19 20 20 20 19 20 22 22 22 22 23 23 23 22 22 22 22 23 23 23 23 23 24 24 23 23 23 23 23 23 22 21 22 21 21 21
15 15 14 14 16 17 17 18 17 17 17 17 19 19 20 20 20 22 22 22 23 23 22 23 23 22 22 23 23 23 22 23 23 23 23 24 24 23 23 23 23 23 24 23 23 23 22 22 22
15 15 15 15 16 17 17 19 17 16 17 17 18 19 19 19 19 21 22 22 23 24 23 24 23 23 23 23 24 24 24 23 22 22 23 23 24 23 23 23 24 24 25 25 24 24 24 24 23
15 15 16 16 17 20 18 19 18 17 17 17 18 19 18 19 20 22 23 23 23 23 24 24 23 23 22 23 24 24 24 23 22 22 23 23 23 23 23 23 24 25 25 24 25 25 25 25 25
16 17 18 17 17 19 18 20 19 17 16 17 18 19 19 19 20 22 23 23 23 24 24 23 23 23 23 23 24 24 24 23 23 23 23 22 22 22 23 24 24 25 25 26 26 25 25 26 25
16 17 17 17 17 17 17 19 18 16 17 17 19 19 19 20 21 22 22 23 23 24 24 22 22 23 23 23 24 24 24 23 22 22 22 22 22 23 23 24 24 25 25 26 26 26 26 26 26
15 16 17 17 17 18 18 18 16 17 18 18 19 19 20 21 21 22 22 23 23 24 24 23 22 23 23 24 24 23 22 21 21 21 21 22 22 23 24 24 24 24 25 26 26 26 26 26 26
15 15 15 17 18 19 18 17 16 17 18 19 20 20 21 22 23 23 22 22 23 23 24 24 23 23 24 24 24 23 22 21 21 21 22 22 22 23 23 24 24 24 24 25 25 26 26 26 27
14 15 15 16 17 18 19 18 17 18 19 20 21 21 21 21 22 23 23 22 22 23 24 22 23 24 24 23 23 23 22 21 21 22 22 22 23 23 23 23 24 24 24 24 25 26 27 27 27
15 15 16 17 18 19 20 20 19 19 19 20 20 20 22 22 22 23 23 23 23 23 23 23 24 24 24 24 23 23 22 22 22 22 22 22 22 23 23 23 23 24 25 24 24 25 25 26 26
Wind_Direction
144 147 148 145 145 153 139 17 343 324 315 311 318 323 327 325 325 326 325 323 324 329 327 322 319 320 320 316 311 306 301 300 296 294 292 292 290 290 289 285 284 282 279 277 274 274 272 269 268
156 159 161 161 160 154 101 8 340 330 321 320 321 321 323 322 320 321 323 322 321 325 323 319 319 318 318 315 310 305 301 300 297 292 289 289 286 287 287 284 281 279 277 276 274 273 272 270 269
161 170 175 172 168 118 57 351 331 325 322 329 327 322 321 320 322 322 323 321 322 322 319 312 312 312 311 309 307 305 302 300 297 292 290 289 285 286 288 282 277 275 274 274 273 273 273 272 270
164 170 183 179 168 121 359 319 315 315 319 326 327 322 321 321 323 323 324 322 318 315 314 311 309 307 304 302 301 301 302 300 295 293 290 288 282 282 282 279 275 273 272 271 271 272 272 270 268
175 181 183 174 170 210 296 306 304 316 315 319 322 319 319 320 321 322 323 322 319 313 310 310 309 307 300 298 301 300 300 298 295 292 290 287 283 279 276 277 275 272 270 268 270 271 271 270 267
199 203 196 187 242 261 305 312 313 315 316 319 321 320 321 324 324 323 322 319 319 312 308 308 306 305 300 298 297 297 296 294 293 291 289 285 281 277 274 271 271 270 269 268 269 270 270 270 268
215 223 226 227 268 310 316 306 310 316 314 315 319 321 323 326 326 325 325 322 318 314 308 307 304 303 301 301 300 298 295 294 290 287 285 282 278 274 276 271 269 269 268 267 268 270 271 269 268
216 215 225 257 300 312 312 306 309 312 315 318 320 321 323 324 325 325 326 321 317 313 309 308 306 302 301 302 301 301 298 294 291 286 285 282 276 272 273 272 270 268 268 268 269 270 270 269 267
218 218 231 283 302 297 296 307 310 313 317 321 320 320 322 323 325 324 323 320 316 312 309 309 306 304 305 306 304 299 297 294 290 285 286 284 277 273 273 271 271 270 270 269 269 270 269 269 266
221 228 236 289 296 296 300 312 314 315 315 318 320 320 320 322 326 325 323 319 314 311 307 306 305 305 306 306 304 300 297 292 288 285 286 284 280 276 273 272 271 270 270 268 267 268 268 267 264
223 222 237 271 289 290 300 309 315 315 317 317 319 318 320 323 324 322 320 316 314 311 308 308 305 303 304 305 306 305 303 295 290 288 290 287 281 279 276 274 272 271 270 267 266 267 267 266 267
226 232 245 262 274 288 303 311 312 315 319 322 324 320 319 321 320 319 317 315 314 312 310 307 304 305 306 306 306 305 303 297 294 291 290 288 284 281 278 277 273 273 270 269 266 266 266 266 266
230 234 246 259 273 283 297 310 316 319 322 322 323 324 320 318 317 317 316 315 314 314 311 308 306 306 306 306 306 303 300 298 295 292 289 287 285 281 278 276 273 272 271 269 269 268 270 268 267
239 243 250 257 273 286 293 297 303 312 319 322 322 323 322 317 318 319 318 316 314 313 311 309 307 305 303 304 304 305 302 300 296 292 289 287 286 283 280 276 273 273 273 271 270 269 271 270 270
248 250 259 264 276 285 291 293 298 308 313 317 317 321 323 317 317 318 320 319 316 313 311 308 305 304 304 303 302 302 302 300 296 292 291 287 287 286 284 279 274 273 272 271 269 269 271 271 270
249 260 271 270 274 283 291 297 301 309 310 312 313 315 317 314 316 318 319 320 315 314 313 310 306 304 305 305 305 304 302 300 296 292 290 286 285 284 282 280 277 275 272 270 270 270 273 274 272
250 260 270 273 275 282 285 289 300 305 306 306 309 312 314 313 315 317 320 321 318 317 316 312 309 307 306 305 303 302 300 298 293 292 290 285 284 282 280 278 277 277 277 274 273 273 275 275 274
260 267 274 273 268 274 279 285 295 304 304 305 307 312 314 315 313 314 319 321 320 318 317 314 311 309 307 304 303 301 298 296 292 292 291 288 285 283 279 277 277 276 277 277 275 274 275 276 274
265 268 269 267 264 273 280 285 292 298 300 308 306 311 313 315 312 313 317 319 318 317 315 315 312 310 306 303 302 300 297 295 292 291 290 289 287 284 281 276 275 274 273 274 274 274 274 276 275
260 262 264 263 265 274 279 285 289 296 299 304 310 313 311 313 312 314 314 316 319 318 316 315 313 312 310 306 303 300 297 295 291 290 288 287 286 284 281 276 274 273 273 274 275 275 272 272 274
257 262 266 265 264 272 281 284 287 292 297 301 308 312 317 314 312 316 317 319 317 315 314 313 312 311 309 307 305 303 299 294 291 288 285 284 284 283 281 278 274 272 272 273 273 273 272 271 273
256 261 263 263 267 268 276 285 286 288 292 297 304 310 313 312 313 316 316 315 316 314 314 314 313 312 309 307 305 303 301 296 291 287 284 283 282 280 280 277 273 272 271 272 271 270 271 270 271
256 260 260 264 265 268 271 281 287 288 290 298 302 306 310 311 311 315 315 316 316 316 316 317 315 312 309 307 306 305 302 298 293 289 286 283 282 280 279 276 273 273 273 271 270 270 270 269 270
260 265 263 263 266 267 270 278 285 289 290 296 299 302 307 309 309 311 314 315 316 316 317 318 316 313 311 308 308 306 303 301 296 292 289 285 282 280 280 278 275 274 272 269 269 270 270 268 268
258 266 270 267 269 270 272 276 281 287 291 297 300 303 305 307 309 312 313 313 316 317 316 317 316 315 313 311 310 309 306 301 297 294 292 288 284 282 281 279 276 274 273 272 271 271 270 268 267
268 269 273 276 273 272 273 275 281 287 291 298 300 301 303 306 310 312 312 314 314 316 315 314 316 315 313 311 310 310 307 303 299 295 293 289 287 285 283 280 277 275 274 274 272 271 271 269 268
269 268 272 277 276 275 277 281 287 294 296 295 298 302 305 308 310 311 311 313 314 314 315 315 316 315 314 313 312 311 308 304 300 297 293 289 287 287 285 281 279 277 274 273 271 271 270 269 269
269 271 270 272 276 276 279 285 294 300 300 297 298 304 309 310 311 310 311 313 313 312 314 314 314 316 316 314 313 311 309 304 302 299 296 292 290 290 287 285 282 279 277 275 272 270 270 269 269
271 270 271 275 279 279 281 285 295 300 299 299 304 307 309 309 310 309 310 310 313 314 317 315 316 317 315 312 311 310 308 307 308 305 300 296 294 292 291 289 285 281 280 278 275 272 270 269 269
268 271 270 273 277 279 283 288 294 300 301 303 306 307 308 309 310 311 311 314 316 316 317 317 317 318 318 315 311 309 307 307 308 310 305 301 299 297 293 289 286 284 282 279 275 272 270 269 270
Height
5914 5914 5914 5915 5915 5914 5913 5913 5913 5913 5913 5912 5911 5910 5909 5908 5908 5909 5905 5902 5901 5900 5898 5898 5897 5896 5896 5895 5894 5893 5892 5891 5890 5889 5889 5888 5887 5886 5885 5885 5884 5884 5884 5884 5883 5883 5882 5882 5881
5913 5913 5914 5914 5913 5912 5912 5912 5912 5912 5912 5911 5910 5909 5908 5906 5905 5904 5902 5900 5899 5898 5897 5896 5895 5895 5894 5893 5892 5891 5890 5890 5889 5888 5887 5886 5885 5884 5884 5883 5883 5882 5882 5882 5882 5881 5881 5880 5880
5912 5912 5913 5912 5912 5911 5911 5911 5911 5911 5910 5909 5908 5907 5907 5905 5904 5902 5900 5898 5897 5896 5895 5894 5893 5893 5892 5891 5890 5889 5888 5887 5886 5885 5885 5884 5883 5882 5881 5881 5880 5880 5880 5880 5879 5879 5879 5878 5878
5911 5912 5912 5912 5910 5910 5909 5909 5909 5908 5908 5908 5907 5906 5905 5904 5902 5900 5898 5896 5895 5894 5893 5892 5891 5890 5890 5889 5888 5887 5886 5885 5884 5883 5882 5881 5880 5880 5879 5878 5878 5878 5878 5878 5877 5877 5877 5876 5876
5910 5911 5911 5910 5909 5908 5908 5907 5908 5907 5907 5907 5906 5904 5903 5902 5900 5898 5896 5894 5893 5892 5891 5890 5889 5888 5887 5887 5886 5884 5883 5882 5881 5880 5879 5878 5878 5877 5876 5876 5875 5875 5875 5875 5875 5874 5874 5874 5873
5910 5910 5910 5909 5908 5908 5908 5907 5907 5906 5906 5905 5904 5903 5901 5900 5898 5896 5894 5893 5891 5890 5889 5888 5887 5885 5884 5884 5883 5882 5880 5879 5877 5876 5875 5875 5874 5874 5873 5873 5872 5872 5872 5872 5872 5872 5871 5871 5871
5910 5909 5909 5908 5907 5907 5907 5906 5905 5904 5904 5904 5902 5900 5898 5897 5895 5893 5892 5890 5889 5888 5887 5886 5884 5883 5882 5881 5880 5878 5877 5875 5874 5873 5872 5871 5871 5870 5870 5869 5869 5869 5869 5869 5869 5868 5868 5868 5868
5907 5909 5907 5906 5906 5906 5905 5904 5903 5903 5903 5902 5900 5898 5896 5895 5893 5891 5890 5888 5886 5885 5884 5883 5882 5880 5879 5878 5876 5875 5873 5871 5870 5869 5868 5867 5867 5867 5866 5866 5866 5866 5865 5865 5865 5865 5865 5865 5865
5906 5907 5906 5905 5905 5905 5904 5902 5901 5902 5901 5900 5898 5896 5894 5892 5890 5889 5887 5886 5884 5883 5882 5880 5879 5878 5876 5875 5873 5871 5869 5868 5866 5865 5864 5864 5863 5863 5862 5862 5862 5862 5862 5862 5861 5861 5861 5861 5861
5905 5905 5905 5905 5904 5903 5902 5901 5901 5900 5899 5898 5896 5894 5892 5890 5888 5887 5885 5883 5882 5880 5879 5878 5876 5874 5873 5871 5870 5867 5866 5864 5862 5861 5860 5860 5859 5858 5858 5858 5857 5857 5857 5857 5857 5857 5857 5856 5856
5903 5904 5903 5903 5903 5902 5901 5900 5899 5898 5897 5895 5894 5892 5890 5888 5886 5884 5882 5881 5879 5877 5876 5874 5873 5871 5869 5868 5866 5863 5862 5860 5859 5857 5856 5855 5855 5854 5853 5853 5853 5853 5852 5852 5852 5852 5852 5852 5852
5902 5902 5901 5901 5901 5900 5899 5897 5896 5895 5894 5893 5891 5889 5887 5885 5883 5881 5879 5878 5876 5874 5872 5870 5869 5867 5865 5863 5862 5860 5858 5856 5855 5853 5852 5851 5850 5849 5849 5848 5848 5848 5848 5848 5848 5848 5847 5847 5847
5899 5899 5899 5898 5897 5897 5897 5895 5894 5892 5891 5890 5888 5886 5884 5882 5880 5878 5876 5874 5873 5871 5869 5867 5865 5863 5861 5859 5858 5856 5854 5852 5851 5849 5848 5847 5846 5845 5844 5844 5844 5844 5844 5844 5843 5843 5843 5843 5842
5897 5897 5896 5896 5895 5894 5894 5893 5892 5891 5889 5887 5885 5883 5882 5880 5878 5876 5873 5871 5869 5867 5865 5863 5862 5860 5858 5856 5853 5852 5850 5848 5846 5845 5844 5843 5842 5841 5840 5840 5840 5839 5839 5839 5839 5839 5838 5838 5838
5894 5894 5895 5894 5893 5892 5891 5890 5889 5888 5887 5885 5883 5881 5879 5876 5875 5872 5870 5868 5866 5863 5861 5860 5858 5856 5853 5851 5849 5847 5845 5844 5842 5841 5839 5838 5837 5837 5836 5835 5835 5835 5834 5834 5834 5834 5833 5833 5832
5891 5892 5892 5893 5891 5890 5890 5887 5887 5885 5884 5882 5880 5878 5876 5874 5871 5868 5866 5864 5862 5860 5857 5855 5853 5851 5849 5847 5845 5843 5841 5839 5838 5836 5835 5834 5833 5832 5831 5831 5830 5830 5829 5829 5829 5829 5828 5827 5827
5888 5889 5889 5889 5888 5887 5886 5885 5884 5883 5881 5879 5876 5874 5872 5869 5867 5865 5862 5860 5858 5856 5854 5852 5849 5847 5845 5842 5840 5839 5837 5835 5833 5832 5830 5829 5828 5827 5826 5826 5825 5825 5824 5824 5823 5823 5822 5822 5821
5886 5885 5885 5886 5885 5884 5882 5882 5881 5879 5877 5874 5872 5871 5869 5865 5863 5861 5859 5856 5854 5852 5850 5848 5845 5843 5840 5838 5836 5834 5832 5830 5828 5827 5825 5823 5822 5821 5820 5820 5819 5819 5819 5818 5818 5817 5817 5816 5815
5882 5881 5881 5882 5881 5880 5879 5878 5877 5876 5874 5871 5868 5867 5866 5863 5860 5857 5855 5853 5850 5848 5845 5843 5841 5838 5835 5833 5831 5829 5827 5825 5823 5821 5819 5817 5816 5815 5814 5814 5813 5813 5813 5812 5812 5811 5811 5810 5809
5877 5878 5878 5878 5878 5876 5874 5874 5873 5872 5870 5868 5866 5863 5861 5860 5857 5854 5851 5849 5847 5844 5842 5839 5836 5833 5831 5828 5826 5823 5821 5818 5816 5814 5812 5811 5809 5808 5807 5807 5806 5806 5806 5806 5805 5805 5804 5804 5803
5873 5874 5874 5874 5873 5872 5871 5870 5870 5868 5866 5864 5862 5859 5858 5856 5854 5851 5848 5846 5844 5841 5838 5835 5831 5829 5826 5823 5820 5817 5814 5811 5809 5807 5806 5804 5802 5801 5800 5799 5799 5799 5799 5799 5798 5798 5798 5798 5797
5869 5870 5870 5870 5869 5868 5868 5866 5866 5864 5862 5861 5859 5857 5855 5853 5851 5848 5846 5844 5841 5837 5834 5830 5827 5823 5820 5817 5814 5811 5808 5805 5802 5800 5798 5797 5795 5794 5793 5792 5791 5791 5791 5791 5791 5791 5791 5791 5790
5866 5866 5865 5865 5864 5864 5863 5862 5862 5860 5858 5857 5855 5854 5852 5849 5847 5845 5842 5840 5836 5832 5829 5825 5821 5818 5815 5812 5808 5805 5802 5799 5796 5794 5792 5790 5789 5787 5786 5785 5784 5784 5784 5784 5784 5784 5784 5783 5783
5862 5862 5861 5861 5860 5859 5859 5857 5856 5855 5854 5853 5851 5850 5848 5846 5843 5841 5838 5835 5831 5827 5823 5820 5816 5813 5809 5806 5803 5799 5795 5792 5790 5787 5785 5784 5782 5780 5779 5778 5777 5776 5776 5776 5776 5776 5776 5776 5775
5858 5858 5857 5856 5854 5854 5854 5852 5852 5852 5851 5849 5848 5846 5844 5842 5839 5837 5834 5831 5827 5823 5819 5815 5811 5808 5804 5801 5797 5793 5789 5786 5783 5780 5778 5776 5775 5773 5772 5770 5770 5769 5768 5768 5768 5768 5768 5767 5767
5854 5854 5853 5852 5850 5850 5849 5847 5849 5848 5846 5845 5844 5842 5840 5838 5835 5833 5830 5826 5821 5817 5814 5810 5806 5803 5799 5795 5791 5787 5783 5780 5776 5774 5772 5770 5768 5766 5765 5763 5762 5761 5760 5760 5760 5760 5759 5759 5759
5850 5849 5849 5848 5847 5846 5845 5845 5845 5844 5842 5841 5839 5837 5835 5832 5830 5828 5825 5821 5817 5813 5809 5805 5801 5797 5793 5790 5786 5782 5778 5774 5771 5768 5766 5763 5761 5759 5757 5756 5755 5754 5753 5752 5752 5752 5751 5751 5751
5847 5846 5845 5844 5842 5841 5841 5841 5841 5840 5838 5837 5835 5833 5830 5827 5825 5822 5819 5815 5811 5808 5805 5800 5796 5792 5788 5784 5780 5776 5772 5768 5765 5762 5759 5757 5755 5753 5751 5749 5747 5746 5745 5744 5744 5743 5743 5743 5742
5842 5842 5841 5840 5839 5838 5837 5839 5838 5836 5835 5832 5830 5827 5825 5823 5820 5817 5814 5810 5806 5803 5799 5794 5791 5786 5782 5778 5774 5770 5766 5763 5759 5756 5753 5751 5748 5746 5744 5742 5740 5739 5738 5737 5736 5735 5734 5734 5734
5839 5838 5837 5837 5836 5834 5833 5836 5833 5832 5829 5827 5825 5823 5821 5818 5815 5812 5809 5805 5801 5798 5794 5789 5785 5782 5777 5773 5769 5765 5761 5757 5754 5750 5747 5744 5742 5739 5737 5735 5733 5731 5729 5728 5728 5727 5726 5726 5725